This is the latest recevied weather packets stored in our database for station/object KI4HRG. If no packets are shown the sender has not sent any weather packets the latest 10 day(s).
| Time | Temp. | Humidity | Pressure | Rain* | Wind** | Luminosity | Snow |
|---|---|---|---|---|---|---|---|
| 1787756474 | 28.33° C | 70% | 1017.6 hPa | 0 mm | - | 408 W/m² | - |
| 1787756173 | 28.89° C | 72% | 1017.4 hPa | 0 mm | - | 261 W/m² | - |
| 1787755868 | 28.89° C | 72% | 1017.4 hPa | 0 mm | - | 279 W/m² | - |
| 1787755567 | 28.89° C | 69% | 1017.4 hPa | 0 mm | - | 189 W/m² | - |
| 1787755262 | 28.89° C | 69% | 1017.5 hPa | 0 mm | - | 199 W/m² | - |
| 1787754961 | 28.89° C | 67% | 1017.2 hPa | 0 mm | - | 194 W/m² | - |
| 1787754656 | 28.33° C | 69% | 1017.2 hPa | 0 mm | - | 192 W/m² | - |
| 1787754354 | 28.33° C | 68% | 1017.1 hPa | 0 mm | - | 228 W/m² | - |
| 1787754049 | 28.33° C | 68% | 1017.3 hPa | 0 mm | - | 226 W/m² | - |
| 1787753748 | 28.33° C | 71% | 1017.3 hPa | 0 mm | - | 262 W/m² | - |
| 1787753447 | 28.33° C | 70% | 1017.2 hPa | 0 mm | - | 229 W/m² | - |
| 1787753146 | 28.33° C | 70% | 1017.2 hPa | 0 mm | - | 211 W/m² | - |
| 1787752842 | 29.44° C | 69% | 1017.1 hPa | 0 mm | - | 250 W/m² | - |
| 1787752540 | 29.44° C | 68% | 1017.1 hPa | 0 mm | - | 363 W/m² | - |
| 1787752237 | 28.89° C | 70% | 1016.9 hPa | 0 mm | - | 321 W/m² | - |
| 1787751934 | 28.33° C | 71% | 1016.9 hPa | 0 mm | - | 300 W/m² | - |
| 1787751630 | 28.33° C | 73% | 1017.2 hPa | 0 mm | - | 288 W/m² | - |
| 1787751325 | 27.78° C | 74% | 1017.1 hPa | 0 mm | - | 246 W/m² | - |
| 1787751021 | 27.22° C | 74% | 1017.1 hPa | 0 mm | - | 262 W/m² | - |
| 1787750715 | 27.22° C | 74% | 1017 hPa | 0 mm | - | 241 W/m² | - |
| 1787750415 | 27.22° C | 75% | 1016.8 hPa | 0 mm | - | 228 W/m² | - |
| 1787750110 | 27.22° C | 76% | 1016.8 hPa | 0 mm | - | 214 W/m² | - |
| 1787749807 | 26.67° C | 76% | 1016.9 hPa | 0 mm | - | 204 W/m² | - |
| 1787749501 | 26.67° C | 78% | 1017 hPa | 0 mm | - | 187 W/m² | - |
| 1787749201 | 26.11° C | 79% | 1017 hPa | 0 mm | - | 161 W/m² | - |
* Rain latest hour (hover to see other rain measurements)
** Current wind speed in m/s (hover to see current wind gust speed)